CHERITA, SEDOKA AND LIMERICK

Folder Contents

Author's Full Portfolio

Title Comments Views Updated Posted
1 RHETORIC 4 38 2021/10/05 1 week ago
2 NEVER WORKING OUT 30 2021/10/02 2 weeks ago
3 WELL REHEARSED SPONTANEITY 2 46 2021/09/27 2 weeks ago
4 YOU CAN'T FIGHT CITY HALL 53 2021/09/24 3 weeks ago
5 CLOUDY AND GRAY DAY 41 2021/09/12 5 weeks ago
6 SUN GLARE 61 2021/09/08 5 weeks ago
7 ALL MY OBSERVATIONS 51 2021/09/06 5 weeks ago
8 SAGE ADVICE 46 2021/09/01 6 weeks ago
9 OPEN ROAD CALLING 54 2021/08/23 7 weeks ago
10 DOCTRINATED DECORUM 50 2021/08/19 8 weeks ago
11 WORDS RECKLESSLY ETCHED ON SHIRT 98 2021/08/13 9 weeks ago
12 SADLY HEADING HOME 64 2021/09/03 10 weeks ago
13 ONWARD WE TREK 57 2021/07/25 12 weeks ago
14 PARKING LOT 78 2021/09/29 12 weeks ago
15 STORM CLOUDS ON MY TRAIL 65 2021/07/05 14 weeks ago
16 POST MODERN BATHROOM 76 2021/06/26 16 weeks ago
17 BRIEF PATRIOTIC MOMENT 64 2021/06/24 16 weeks ago
18 WONDROUS GENTRIFICATION 2 96 2021/06/13 18 weeks ago
19 TRUER WORDS 100 2021/06/06 19 weeks ago
20 DRIFTING LOST OLD SAN JUAN 195 2021/05/10 22 weeks ago
21 FROM SPRING GARDEN "EL" STOP 84 2021/04/28 24 weeks ago
22 ENDLESS UTOPIA 91 2021/04/27 24 weeks ago
23 BURRITO IN ERASERHOOD 102 2021/04/25 25 weeks ago
24 DO NOT ENTER! 75 2021/04/23 25 weeks ago
25 TURKEY PLAYING CHICKEN 111 2021/04/21 25 weeks ago
26 MUSHED CORN 84 2021/04/19 25 weeks ago
27 COMMENTARY ON THE WALL 205 2021/04/09 27 weeks ago
28 OLD FASHIONED BARREL BOLT LOCK 2 198 2021/03/16 30 weeks ago
29 FOLLOWING A SHADOW 110 2021/03/14 31 weeks ago
30 VIBES DID GATHER 97 2021/03/12 31 weeks ago
31 UNKEPT PROMISES 114 2021/03/10 31 weeks ago
32 5 PAINFUL MINUTES 2 219 2021/03/07 32 weeks ago
33 DOGGED DETERMINATION 2 137 2021/03/05 32 weeks ago
34 HAMBURG CENTRAL STATION 2 101 2021/02/27 33 weeks ago
35 THOSE DECISIONS NOT SO WISE 109 2021/01/08 40 weeks ago
36 OVERRATED 2 191 2021/01/08 40 weeks ago
37 SALUTING WARRIORS 232 2021/01/04 40 weeks ago
38 ICARUS FOOLISHLY FANCIED 2 139 2020/12/27 42 weeks ago
39 WOKE FOLK 1 123 2020/12/24 42 weeks ago
40 I CONTAIN MULTITUDES 115 2020/12/20 43 weeks ago
41 KRAMPUS POEM 147 2020/12/14 43 weeks ago
42 SINISTER DIMPLES (cherita) 131 2020/12/08 44 weeks ago
43 EDDINGTON STATION 1 149 2020/12/04 45 weeks ago
44 VINCENT'S LOST EAR 150 2020/12/04 45 weeks ago
45 PHILLY IN PINK HAZE 2 296 2020/11/27 46 weeks ago
46 DAMN PAPARAZZI 130 2020/11/25 46 weeks ago
47 WISTFUL WINKS 173 2020/11/19 47 weeks ago
48 COPACETIC MUSES 2 153 2020/11/10 48 weeks ago
49 UTOPIAN FANTASY 160 2020/11/03 49 weeks ago
50 SACRED COW 2 160 2020/11/02 49 weeks ago
51 DOMESTICATED HEADHUNTER 4 375 2020/11/16 50 weeks ago
52 GHOSTS POPULATE THE ATTIC 2 207 2020/10/29 50 weeks ago
53 JETTISON THE MILK 148 2020/10/24 51 weeks ago
54 PERPLEXED BY CYNICISM 2 220 2020/10/16 1 year ago
55 AESTHETIC VALUES 2 241 2020/10/14 1 year ago
56 PERFUMED SCENT 6 183 2020/10/12 1 year ago
57 ROUTINE HUMDRUM 2 182 2020/10/05 1 year ago
58 INDESTRUCTIBLE 153 2020/10/05 1 year ago
59 DANCING RAINDROPS 2 142 2020/09/21 1 year ago
60 PARADISE ALLUDED 2 147 2020/09/20 1 year ago
61 NAMELESS LADY 2 148 2020/09/17 1 year ago
62 SKA BEAT 2 144 2020/09/16 1 year ago
63 CRUEL JOKE 2 142 2020/09/15 1 year ago
64 LOMBARDI'S BLEMISH 2 184 2020/09/12 1 year ago
65 SILENCE WHISTLES 1 134 2020/09/07 1 year ago
66 IRISHED UP JAVA 2 155 2020/09/03 1 year ago
67 MY OWN PRIVATE MARDI GRAS 365 2020/07/29 1 year ago
68 7 BUCKS IT IS 2 138 2020/07/25 1 year ago
69 SPIES LIKE US 159 2020/07/23 1 year ago
70 BATTERY ON ZERO 4 171 2020/07/23 1 year ago
71 SPLITTING AN ATOM 155 2020/07/21 1 year ago
72 WHO HID THE REMOTE 140 2020/07/20 1 year ago
73 OF PANIC AND YEARNING 4 153 2020/07/15 1 year ago
74 DEFEND THE NIGHT 157 2020/06/15 1 year ago
75 INCANDESCENT RUBIES 2 186 2020/06/13 1 year ago
76 STEP ABOVE 4 162 2020/06/11 1 year ago
77 ELUDES THE NET 4 215 2020/06/08 1 year ago
78 CONSPIRACY 2 173 2020/06/06 1 year ago
79 BATTERY ACID 171 2020/06/03 1 year ago
80 CALL TO ARMS 2 167 2020/06/02 1 year ago
81 WHIMSICAL ALARM 173 2020/06/01 1 year ago
82 FINAL FRONTIER 2 163 2020/05/31 1 year ago
83 ELASTIC FIGURINES 195 2020/05/30 1 year ago
84 SLOW TRICKLE 2 169 2020/05/30 1 year ago
85 WOUNDS OF A TORN HEART 160 2020/05/26 1 year ago
86 NO-THINGNESS 4 179 2020/05/25 1 year ago
87 CAMOUFLAGE SLEEPING BAG 9 170 2020/05/24 1 year ago
88 MY JAMAICAN FANTASY 167 2020/05/21 1 year ago
89 FIRING SQUAD 2 163 2020/05/20 1 year ago
90 ENDLESS UTOPIAN DREAMS 231 2020/05/19 1 year ago
91 UNOBTRUSIVE REFLEX 3 189 2020/05/17 1 year ago
92 WAYLAY THE NEW DAY 8 232 2020/05/17 1 year ago
93 SIMILES OF GODDESSES 2 269 2020/05/16 1 year ago
94 DELUSIVE GOLD CARD 1 163 2020/05/15 1 year ago
95 FAKE I.D. 2 256 2020/05/13 1 year ago
96 PECULIAR RHYTHM 169 2020/05/12 1 year ago
97 OBSCENE ODES TO ISIS 2 878 2020/05/11 1 year ago
98 TOO COOL MORNING 4 242 2020/05/10 1 year ago
99 ALCHEMIST'S POTION 196 2020/05/05 1 year ago
100 CONTROLLED CHAOS IN MY HEART 204 2020/05/04 1 year ago
101 BLIND CONFORMISTS 4 183 2020/05/03 1 year ago
102 HUMAN AURAS 187 2020/05/02 1 year ago
103 COMPLETELY ENVELOPED 2 179 2020/05/02 1 year ago
104 LUMINATED LAMP SHADE 198 2020/05/01 1 year ago
105 A ONCE RURAL ROAD 2 186 2020/04/28 1 year ago
106 WALKING THE DOG 205 2020/04/24 1 year ago
107 CARTWHEELING TO THE GRAVE 227 2020/04/23 1 year ago
108 MOUNTAIN MUD 2 199 2020/04/21 1 year ago
109 SLAIN BY THE MOB 194 2020/04/19 1 year ago
110 GILDED IN GOLD 4 322 2020/04/18 1 year ago
111 ZODIACS OF THEORY 4 213 2020/04/15 1 year ago
112 NOW IS THE ONLY TIME 200 2020/04/13 1 year ago
113 ORISON CHANTED 2 204 2020/04/11 1 year ago
114 DECADENCE PERSISTS 2 204 2020/04/08 1 year ago
115 CADENCE OF MOLIERÉ 203 2020/04/06 1 year ago
116 NORSE DEITIES 202 2020/04/04 1 year ago
117 WILD BILL IS SHOT 204 2020/04/01 1 year ago
118 PSALMS ORATED 2 205 2020/03/27 1 year ago
119 EXORCISM OF SOUL 2 215 2020/03/23 1 year ago
120 BROKEN GLASS INFERNO 211 2020/03/22 1 year ago
121 DISCRIMINATORY COLORS 2 207 2020/03/22 1 year ago
122 DANCE OF COYOTES 2 213 2020/03/21 1 year ago
123 WORDS MYSTIQUE 2 216 2020/03/21 1 year ago
124 COMMA 206 2020/02/28 1 year ago
125 PISS POOR COMMUNIQUÉ 4 229 2020/02/28 1 year ago
126 EMPTY POUCH 234 2020/02/26 1 year ago
127 CURIOUS BYSTANDER 238 2020/02/23 1 year ago
128 CUPID RHYMES WITH STUPID 4 313 2020/02/22 1 year ago
129 WINES OF GALAXIES 2 221 2020/02/21 1 year ago
130 BILINGUAL SPLENDOR 2 265 2020/02/19 1 year ago
131 ECSTATIC WORDS 2 212 2020/02/18 1 year ago
132 TWISTED MUSTACHE 237 2020/02/09 1 year ago
133 I WANTED TO READ WHITMAN 6 309 2020/02/08 1 year ago
134 RAINY MORNING DAWN 4 245 2020/02/07 1 year ago
135 A BLANK PAGE 2 277 2020/02/06 1 year ago
136 LATEST, STUPID MEME 214 2020/02/04 1 year ago
137 WROTE POEMS TO GET LAID 212 2020/02/04 1 year ago
138 JETTISONED FROM THE PEDESTAL 2 213 2020/02/02 1 year ago
139 WALTZ OVER BROKEN GLASS 216 2020/02/01 1 year ago
140 ENDLESSLY CASCADE 260 2020/02/01 1 year ago
141 WARNING SIGNS 2 226 2020/01/30 1 year ago
142 ANSWERS SOUGHT 210 2020/01/29 1 year ago
143 WRITTEN BY SCHOLARS 243 2020/01/27 1 year ago
144 VISIONARY POETS 218 2020/01/27 1 year ago
145 YOU MUST BE SHROOMIN' 894 2020/01/24 1 year ago
146 IGUANA RAIN 208 2020/01/22 1 year ago
147 A MERE DUSTING 211 2020/01/20 1 year ago
148 JEJUNE YOUNGSTER 215 2020/01/19 1 year ago
149 AUBURN FOX 224 2020/01/18 1 year ago
150 PIGEONS PLAYING CHICKEN 4 240 2020/01/17 1 year ago
151 SINFULLY DELISH 2 885 2020/01/17 1 year ago
152 I NEED TO LEARN 5 244 2020/01/10 1 year ago
153 FANCIED MEESELF A POET 2 255 2020/01/08 1 year ago
154 AUTHOR OF THIS GRAFFITI 337 2020/01/04 1 year ago
155 LATEST TREND 232 2020/01/04 1 year ago
156 RAIN DELAY 240 2020/01/03 1 year ago
157 SUDDENLY WORDS DON'T FLOW 285 2020/01/01 1 year ago
158 BYPASSING THE SCHUYLKILL 2 232 2019/12/31 1 year ago
159 TARNISHING TUNDRA 260 2019/12/22 1 year ago
160 COOL DECEMBER AIR 242 2019/12/18 1 year ago
161 VIKING NIGHT 242 2019/12/17 1 year ago
162 URBAN BLIGHT 344 2019/12/11 1 year ago
163 BUILT IN A DAY 238 2019/12/03 1 year ago
164 LEON TROTSKY 515 2019/12/03 1 year ago
165 MODICUM OF HOPE 292 2019/12/01 1 year ago
166 NORTH STAR BAR 229 2019/11/28 1 year ago
167 DEMONIC SOUNDS 289 2019/11/24 1 year ago
168 HEAD OVER HEELS 263 2019/11/21 1 year ago
169 TRASH PICKER 267 2019/11/20 1 year ago
170 BODY COUNT 702 2020/01/27 1 year ago
171 FURNISHED APARTMENT 277 2019/11/17 1 year ago
172 CURRENT ORBIT 2 308 2019/11/14 1 year ago
173 MEMPHIS MINNIE 514 2019/11/13 1 year ago
174 TREASURE CHEST 2 291 2019/11/12 1 year ago
175 HELL'S BELLS 266 2019/11/11 1 year ago
176 PUSSY RIOT BADGE 390 2019/11/09 1 year ago
177 SELF MADE PEDESTAL 2 454 2019/11/08 1 year ago
178 WISE AMONG US 259 2019/11/04 1 year ago
179 DAMN ROOSTER 278 2019/11/03 1 year ago
180 ENDLESS IMAGES 2 332 2019/11/03 1 year ago
181 NORTH PHILADELPHIA STATION 2 308 2019/11/02 1 year ago
182 STREET LAMP GLOWING 258 2019/10/30 1 year ago
183 SURREAL COMEDY 268 2019/10/27 1 year ago
184 NEW WORLD OUT OF ORDER 253 2019/10/23 1 year ago
185 APOLITICAL CREATIVITY 2 255 2019/10/22 1 year ago
186 BEER COASTER 357 2019/10/21 1 year ago
187 BOUND & GAGGED 243 2019/10/20 1 year ago
188 DRINK WITH BUKOWSKI 243 2019/10/18 2 years ago
189 FALSAMUNDO! 497 2019/10/18 2 years ago
190 TRUE TREASURE 2 331 2019/10/18 2 years ago
191 BEASTLY BUT BEAUTIFUL (limerick) 686 2019/10/18 2 years ago
192 MAGICAL PILL 368 2019/10/18 2 years ago
193 LADIES GARMENTS 324 2019/10/18 2 years ago
194 DUDE (LIMERICK) 2 415 2019/10/18 2 years ago
195 LIMERICKS ARE FINE 3 352 2019/10/18 2 years ago